Retour au catalogue

SL-8 DEB

ActifLEO
NORAD 27745·DEBRIS·🇷🇺 Russia

Lancé Feb 12, 1991 depuis Plesetsk Cosmodrome

Loading…

Prochains Passages (prochaines 24 heures)

TLE

FraisSource: Space-Track

Époque: Sep 13, 2026, 15:11 UTC

1 27745U 91009DA  26256.63278663  .00000037  00000-0  43019-3 0  9996
2 27745  73.9265 341.0360 0144242 277.7840 193.5914 12.30837775359112

Suivez SL-8 DEB en temps réel avec AllMySat

Download on the App Store